This is the latest recevied weather packets stored in our database for station/object N5PLO-10. If no packets are shown the sender has not sent any weather packets the latest 10 day(s).
| Time | Temp. | Humidity | Pressure | Rain* | Wind** | Luminosity | Snow |
|---|---|---|---|---|---|---|---|
| 1777759664 | 26.11° C | 41% | 1023 hPa | 0 mm | - | 353 W/m² | - |
| 1777759359 | 25.56° C | 43% | 1023.3 hPa | 0 mm | - | 364 W/m² | - |
| 1777759056 | 25.56° C | 43% | 1023.1 hPa | 0 mm | - | 385 W/m² | - |
| 1777758753 | 25.56° C | 42% | 1023 hPa | 0 mm | - | 400 W/m² | - |
| 1777758451 | 25° C | 41% | 1023.2 hPa | 0 mm | - | 411 W/m² | - |
| 1777758148 | 25.56° C | 41% | 1023.3 hPa | 0 mm | - | 428 W/m² | - |
| 1777757845 | 25.56° C | 42% | 1023.4 hPa | 0 mm | - | 444 W/m² | - |
| 1777757542 | 25° C | 41% | 1023.2 hPa | 0 mm | - | 456 W/m² | - |
| 1777757241 | 25° C | 41% | 1023.1 hPa | 0 mm | - | 473 W/m² | - |
| 1777756939 | 25° C | 42% | 1023.3 hPa | 0 mm | - | 487 W/m² | - |
| 1777756634 | 25° C | 45% | 1023.3 hPa | 1.27 mm | - | 500 W/m² | - |
| 1777756331 | 25.56° C | 45% | 1023.1 hPa | 1.27 mm | - | 515 W/m² | - |
| 1777756028 | 25.56° C | 43% | 1023.3 hPa | 0 mm | - | 528 W/m² | - |
| 1777755726 | 25.56° C | 45% | 1023.6 hPa | 0 mm | - | 538 W/m² | - |
| 1777755423 | 25.56° C | 41% | 1023.4 hPa | 0 mm | - | 550 W/m² | - |
| 1777755119 | 25° C | 43% | 1023.4 hPa | 0 mm | - | 565 W/m² | - |
| 1777754816 | 25° C | 42% | 1023.5 hPa | 0 mm | - | 221 W/m² | - |
| 1777754514 | 25° C | 45% | 1023.7 hPa | 0 mm | - | 68 W/m² | - |
| 1777754211 | 24.44° C | 44% | 1023.7 hPa | 0 mm | - | 79 W/m² | - |
| 1777753909 | 25° C | 45% | 1023.5 hPa | 0 mm | - | 108 W/m² | - |
| 1777753603 | 24.44° C | 49% | 1023.6 hPa | 0 mm | - | 130 W/m² | - |
| 1777753302 | 24.44° C | 46% | 1023.8 hPa | 0 mm | - | 92 W/m² | - |
| 1777752998 | 25° C | 41% | 1023.7 hPa | 0 mm | - | 59 W/m² | - |
| 1777752695 | 24.44° C | 44% | 1023.7 hPa | 0 mm | - | 87 W/m² | - |
| 1777752390 | 25° C | 42% | 1023.9 hPa | 0 mm | - | 143 W/m² | - |
* Rain latest hour (hover to see other rain measurements)
** Current wind speed in m/s (hover to see current wind gust speed)